Weather History for Wichita Jabara, KS

Change the Weather History Date:

Sunday, April 7, 2013

  Actual Average (KICT) Record (KICT)
Temperature  
Mean Temperature 60 °F 53 °F  
Max Temperature 73 °F 65 °F 91 °F (1890)
Min Temperature 48 °F 42 °F 21 °F (2009)
Degree Days  
Heating Degree Days 6 12  
Month to date heating degree days 91  
Since 1 July heating degree days 4308  
Cooling Degree Days 0 0  
Month to date cooling degree days 0  
Year to date cooling degree days 2  
Growing Degree Days 10 (Base 50)    
Moisture  
Dew Point 52 °F    
Average Humidity 78    
Maximum Humidity 97    
Minimum Humidity 53    
Precipitation  
Precipitation 0.03 in 0.07 in 1.15 in (1913)
Month to date precipitation 0.53  
Year to date precipitation 5.23  
Snow  
Snow 0.00 in 0.00 in 5.30 in (1916)
Month to date snowfall 0.1  
Since 1 July snowfall 14.8  
Snow Depth -    
Sea Level Pressure  
Sea Level Pressure 29.74 in    
Wind  
Wind Speed 7 mph (SSE)    
Max Wind Speed 17 mph    
Max Gust Speed 24 mph    
Visibility 9 miles    
Events Rain , Thunderstorm    
T = Trace of Precipitation, MM = Missing Value Source: NWS Daily Summary

Daily Weather History Graph

Daily Weather History Graph

Search for Another Location

Airport:

Trip Planner

Search our weather history database for the weather conditions in past years. The results will help you decide how hot, cold, wet, or windy it might be!

Date:

Astronomy

Apr. 07, 2013 Rise Set
Actual Time 7:04 AM CDT 7:57 PM CDT
Civil Twilight 6:38 AM CDT 8:24 PM CDT
Nautical Twilight 6:06 AM CDT 8:55 PM CDT
Astronomical Twilight 5:34 AM CDT 9:28 PM CDT
Moon 5:20 AM CDT (4/7) 5:33 PM CDT (4/7)
Length of Visible Light 13h 46m
Length of Day
12h 52m
Waning Crescent, 8% of the Moon is Illuminated
Apr 7
Waning Crescent
Apr 10
New
Apr 18
First Quarter
Apr 25
Full
May 2
Last Quarter

Hourly Weather History & Observations

Time (CDT) Temp. Dew Point Humidity Pressure Visibility Wind Dir Wind Speed Gust Speed Precip Events Conditions
12:54 AM 57.0 °F 41.0 °F 55% 29.85 in 10.0 mi Calm Calm - N/A   Clear
1:54 AM 55.0 °F 41.0 °F 59% 29.84 in 10.0 mi SSE 5.8 mph - N/A   Clear
2:54 AM 55.0 °F 41.0 °F 59% 29.83 in 10.0 mi SSE 4.6 mph - N/A   Clear
3:54 AM 52.0 °F 42.1 °F 69% 29.82 in 10.0 mi SSE 4.6 mph - N/A   Clear
4:54 AM 51.1 °F 42.1 °F 71% 29.82 in 10.0 mi SSE 3.5 mph - N/A   Clear
5:54 AM 53.1 °F 42.1 °F 66% 29.82 in 10.0 mi SE 3.5 mph - N/A   Clear
6:54 AM 48.9 °F 42.1 °F 77% 29.82 in 10.0 mi SE 3.5 mph - N/A   Clear
7:54 AM 52.0 °F 45.0 °F 77% 29.82 in 10.0 mi SSE 5.8 mph - N/A   Clear
8:54 AM 54.0 °F 48.0 °F 80% 29.85 in 10.0 mi Calm Calm - N/A   Mostly Cloudy
9:54 AM 57.0 °F 48.0 °F 72% 29.85 in 10.0 mi SE 3.5 mph - N/A   Overcast
10:54 AM 62.1 °F 52.0 °F 70% 29.82 in 10.0 mi South 5.8 mph - N/A   Partly Cloudy
11:54 AM 66.9 °F 53.1 °F 61% 29.81 in 10.0 mi SE 10.4 mph - N/A   Clear
12:54 PM 71.1 °F 53.1 °F 53% 29.77 in 10.0 mi SSE 11.5 mph - N/A   Clear
1:28 PM 69.8 °F 53.6 °F 56% 29.79 in 10.0 mi SSE 17.3 mph - N/A Thunderstorm Mostly Cloudy
1:54 PM 64.9 °F 57.0 °F 75% 29.74 in 10.0 mi SE 13.8 mph - 0.02 in Thunderstorm Mostly Cloudy
2:18 PM 64.4 °F 59.0 °F 83% 29.74 in 10.0 mi SE 13.8 mph 24.2 mph 0.00 in   Overcast
2:54 PM 66.0 °F 53.1 °F 63% 29.70 in 10.0 mi ESE 15.0 mph - 0.00 in   Overcast
3:49 PM 62.6 °F 55.4 °F 77% 29.70 in 10.0 mi ESE 10.4 mph - N/A   Overcast
3:54 PM 63.0 °F 55.9 °F 78% 29.68 in 10.0 mi ESE 10.4 mph - N/A   Overcast
4:30 PM 62.6 °F 57.2 °F 82% 29.68 in 10.0 mi ESE 9.2 mph - N/A   Overcast
4:54 PM 63.0 °F 57.0 °F 81% 29.68 in 10.0 mi SSE 9.2 mph - N/A   Overcast
5:38 PM 60.8 °F 57.2 °F 88% 29.69 in 4.0 mi South 13.8 mph 21.9 mph N/A   Overcast
5:45 PM 60.8 °F 57.2 °F 88% 29.69 in 4.0 mi South 12.7 mph - N/A   Overcast
5:54 PM 60.1 °F 57.9 °F 93% 29.69 in 3.0 mi South 11.5 mph - 0.00 in Rain Light Rain
5:58 PM 60.8 °F 57.2 °F 88% 29.69 in 2.5 mi South 10.4 mph - 0.00 in Rain Light Rain
6:16 PM 60.8 °F 57.2 °F 88% 29.68 in 3.0 mi SSE 10.4 mph - 0.01 in   Overcast
6:54 PM 60.1 °F 57.9 °F 93% 29.66 in 6.0 mi SSE 13.8 mph - 0.01 in   Overcast
7:54 PM 60.1 °F 57.9 °F 93% 29.65 in 8.0 mi South 13.8 mph - N/A   Overcast
8:54 PM 60.1 °F 57.9 °F 93% 29.66 in 9.0 mi South 13.8 mph - N/A   Overcast
9:38 PM 60.8 °F 57.2 °F 88% 29.67 in 9.0 mi South 13.8 mph - N/A   Overcast
9:54 PM 59.0 °F 57.0 °F 93% 29.67 in 9.0 mi South 11.5 mph - N/A   Overcast
10:54 PM 57.9 °F 57.0 °F 97% 29.67 in 8.0 mi South 16.1 mph - N/A   Clear
11:54 PM 57.9 °F 57.0 °F 97% 29.68 in 8.0 mi South 10.4 mph - N/A   Partly Cloudy